Location: Poigny-la-Forêt
(48.6876°N, 1.7701°E)
Time: 22:11:51
(UTC+02:00)

ISS - Pass Details

Date: 27 March 2019
Orbit: 408 x 410 km, 51.6° (Epoch: 23 April)

Event Time Altitude Azimuth Distance (km) Brightness Sun altitude
Rises 21:43:16 0° 280° (W) 2,337 1.1 -23.5°
Reaches altitude 10° 21:45:25 10° 286° (WNW) 1,475 0.0 -23.8°
Enters shadow 21:47:45 37° 316° (NW) 658 -2.3 -24.1°
